STARLINK-35645, 66124

Orbit data source: Space-Track

STARLINK-35645, 66124 is a payload satellite owned by SpaceX/Seattle (US) in LEO that was launched on Wed, 22 Oct 2025 UTC via an FALCON 9 launch vehicle from the Air Force Western Test Range (AFWTR). Payload-class satellites include a variety of spacecraft equipped with specific instruments for various scientific and technological missions. These include communications satellites like Starlink; space stations such as the ISS; scientific satellites like the Hubble; Earth observation satellites from companies like Planet Labs, Umbra, and HawkEye 360; GPS; miniature CubeSats for education and research; and military/defense satellites.

Loading next visibility...
Identifier
66124, 2025-237L
Orbit
LEO
Country
Flag of USUS
Related business
Manufacturer
SpaceX/Seattle
Mission
Operational Commercial Communications
Bus & Motor
STARLINK V2MO, Unknown motor
Mass
575 kg wet, ~530 kg dry
Launch date (UTC)
2025-10-22 (8 months ago)
Launch vehicle
FALCON 9
Launch site
Air Force Western Test Range (AFWTR)
Object type
Payload
Rocket body
Debris
Shape & HBR
Box + 2 Pan, 17.7 m
Radar Cross Section
36.964 m², Large (>1 m²)

Expand to show TLE details & history
Last TLE update: 1 day ago

TLE from 1 day ago
0 STARLINK-35645
1 66124U 25237L   26170.69462897  .00018498  00000-0  55733-3 0  9991
2 66124  53.1614 285.4147 0001288  88.4252 271.6898 15.34395179 38234
Epoch: 2026-06-19T16:40Z
TLE epoch observation values (Epoch: 2026-06-19T16:40:15.943Z)
Latitude
-0.00001°
Longitude
127.42834°
Altitude
463.593 km
Speed
7.636 km/s
True Right ascension
19h 01m 39s
True Declination
0° 00' 00"
Sunlit
Object was in full shadow at epoch
Visualization orbit readout
Latitude
Unknown
Longitude
Unknown
Altitude
Unknown
Speed
Unknown
Apparent Right ascension
Unknown
Apparent Declination
Unknown
Sunlit
N/A
Visualization observer readout
Local Sidereal Time
07:22:51
Azimuth
Unknown
Elevation
Unknown
Doppler factor
Unknown
Orbital elements
Apogee altitude
463.855 km
Perigee altitude
462.093 km
Semi-major axis
6,841.111 km
Eccentricity
0.00013
Inclination
53.1614°
RAAN
285.4147°
Arg. of periapsis
88.4252°
True anomaly
271.67505°
Mean anomaly
271.6898°
Eccentric anomaly
271.68242°
Mean motion
3.83578 °/min
Orbital period
93.85 mins
BSTAR
0.00055733
Loading maneuver chart data...
Computing Atmospheric mass density...
Loading historical data...
Loading historical data...
Loading historical data...
Loading historical data...
Loading historical data...
Loading historical data...
Loading historical data...

Documentation

Showing up to 5 results
|